{"data":{"norad_id":53420,"intl_designator":"2022-097AJ","name":"STARLINK-4552","alt_names":[],"object_type":"PAYLOAD","status":"ACTIVE","operator":null,"country":"US","launch_date":"2022-08-10","launch_site_code":"AFETR","launch_vehicle":null,"mission":null,"orbit_class":"UNKNOWN","rcs_meters":null,"size_class":null,"mass_kg":null,"dimensions":null,"purposes":["comms"],"wikipedia_slug":null,"has_3d_model":false,"image_url":null,"decayed_at":null,"tle_current":{"epoch":"2026-05-25T02:43:57.928224Z","epoch_age_seconds":58596,"freshness":"FRESH","line1":"1 53420U 22097AJ  26145.11386491  .00000301  00000+0  36954-4 0  9999","line2":"2 53420  53.2132 131.0374 0001110  64.5089 295.6018 15.08856306210169","mean_motion":15.08856306,"eccentricity":0.000111,"inclination_deg":53.2132,"raan_deg":131.0374,"arg_perigee_deg":64.5089,"mean_anomaly_deg":295.6018,"bstar":3.6954e-5,"rev_number":21016,"period_min":95.436523297401,"perigee_km":538.92566930339,"apogee_km":540.46142768516,"semimajor_km":6917.8305484943,"source":"CELESTRAK","updated_at":"2026-05-25T13:38:17.403201Z"}}}